Weather History for Jaffrey, NH

Change the Weather History Date:

Monday, September 10, 2012

  Actual Average Record
Temperature  
Mean Temperature 56 °F -  
Max Temperature 66 °F 71 °F 88 °F (2002)
Min Temperature 48 °F 50 °F 39 °F (2003)
Degree Days  
Heating Degree Days 9    
Growing Degree Days 6 (Base 50)    
Moisture  
Dew Point 44 °F    
Average Humidity 62    
Maximum Humidity 86    
Minimum Humidity 38    
Precipitation  
Precipitation 0.00 in - - ()
Sea Level Pressure  
Sea Level Pressure 29.99 in    
Wind  
Wind Speed 3 mph (NNW)    
Max Wind Speed 9 mph    
Max Gust Speed 20 mph    
Visibility 10 miles    
Events      
Averages and records for this station are not official NWS values.
T = Trace of Precipitation, MM = Missing Value Source: NWS Daily Summary

Daily Weather History Graph

Daily Weather History Graph

Search for Another Location

Airport:

Trip Planner

Search our weather history database for the weather conditions in past years. The results will help you decide how hot, cold, wet, or windy it might be!

Date:

Astronomy

Sep. 10, 2012 Rise Set
Actual Time 6:22 AM EDT 7:05 PM EDT
Civil Twilight 5:54 AM EDT 7:34 PM EDT
Nautical Twilight 5:20 AM EDT 8:08 PM EDT
Astronomical Twilight 4:45 AM EDT 8:43 PM EDT
Moon 12:35 AM EDT (9/10) 3:39 PM EDT (9/10)
Length of Visible Light 13h 40m
Length of Day
12h 43m
Waning Crescent, 30% of the Moon is Illuminated
Sep 10
Waning Crescent
Sep 15
New
Sep 22
First Quarter
Sep 29
Full
Oct 8
Last Quarter

Hourly Weather History & Observations

Time (EDT) Temp. Dew Point Humidity Pressure Visibility Wind Dir Wind Speed Gust Speed Precip Events Conditions
12:52 AM 54.0 °F 50.0 °F 86% 29.91 in 10.0 mi Calm Calm - N/A   Mostly Cloudy
1:52 AM 52.0 °F 48.0 °F 86% 29.91 in 10.0 mi Calm Calm - N/A   Clear
2:52 AM 52.0 °F 48.0 °F 86% 29.91 in 10.0 mi Calm Calm - N/A   Mostly Cloudy
3:52 AM 52.0 °F 48.0 °F 86% 29.91 in 10.0 mi Calm Calm - N/A   Scattered Clouds
4:52 AM 52.0 °F 48.0 °F 86% 29.92 in 10.0 mi Calm Calm - N/A   Mostly Cloudy
5:52 AM 50.0 °F 45.0 °F 83% 29.93 in 10.0 mi Calm Calm - N/A   Clear
6:52 AM 48.9 °F 45.0 °F 86% 29.96 in 10.0 mi Calm Calm - N/A   Clear
7:52 AM 55.9 °F 46.0 °F 69% 29.97 in 10.0 mi Calm Calm - N/A   Clear
8:52 AM 60.1 °F 45.0 °F 57% 29.98 in 10.0 mi Variable 3.5 mph - N/A   Clear
9:52 AM 62.1 °F 45.0 °F 53% 29.99 in 10.0 mi NNW 6.9 mph - N/A   Scattered Clouds
10:52 AM 60.1 °F 45.0 °F 57% 29.99 in 10.0 mi Variable 5.8 mph 17.3 mph N/A   Overcast
11:52 AM 60.1 °F 45.0 °F 57% 30.00 in 10.0 mi Variable 5.8 mph 18.4 mph N/A   Overcast
12:52 PM 62.1 °F 44.1 °F 52% 29.98 in 10.0 mi NNW 8.1 mph - N/A   Overcast
1:52 PM 64.9 °F 42.1 °F 43% 29.97 in 10.0 mi NNW 9.2 mph 19.6 mph N/A   Overcast
2:52 PM 64.0 °F 42.1 °F 45% 29.98 in 10.0 mi NW 8.1 mph - N/A   Overcast
3:52 PM 64.0 °F 37.9 °F 38% 29.98 in 10.0 mi North 9.2 mph 16.1 mph N/A   Mostly Cloudy
4:52 PM 63.0 °F 39.9 °F 43% 30.00 in 10.0 mi Variable 6.9 mph - N/A   Mostly Cloudy
5:52 PM 62.1 °F 39.0 °F 43% 30.01 in 10.0 mi NNW 8.1 mph - N/A   Scattered Clouds
6:52 PM 57.9 °F 39.9 °F 51% 30.04 in 10.0 mi Calm Calm - N/A   Clear
7:52 PM 57.0 °F 41.0 °F 55% 30.06 in 10.0 mi Variable 6.9 mph - N/A   Overcast
8:52 PM 57.9 °F 39.9 °F 51% 30.08 in 10.0 mi Variable 4.6 mph - N/A   Overcast
9:52 PM 55.9 °F 41.0 °F 57% 30.09 in 10.0 mi NNW 5.8 mph - N/A   Clear
10:52 PM 53.1 °F 41.0 °F 64% 30.09 in 10.0 mi Variable 3.5 mph - N/A   Clear
11:52 PM 54.0 °F 39.9 °F 59% 30.09 in 10.0 mi Variable 4.6 mph - N/A   Clear